Miscellaneous Local Product
Issued by NWS Hastings, NE

Home | Current Version | Previous Version | Graphics & Text | Print | Product List | Glossary On
Versions: 1 2 3 4 5 6 7 8 9 10 11 12 13 14 15 16 17 18 19 20 21 22 23 24 25 26 27 28 29 30 31 32 33 34 35 36 37 38 39 40 41 42 43 44 45 46 47 48 49 50
000
AXUS43 KGID 301002
MISGRI

GID CWA HOURLY WEATHER ROUNDUP
NATIONAL WEATHER SERVICE HASTINGS NE
500 AM CDT SUN AUG 30 2015

NOTE: "FAIR" INDICATES FEW OR NO CLOUDS BELOW 12,000 FEET WITH NO
SIGNIFICANT WEATHER AND/OR OBSTRUCTIONS TO VISIBILITY.

...SOUTH CENTRAL NEBRASKA...

CITY           SKY/WX    TMP DP  RH WIND       PRES   REMARKS
GRAND ISLAND   CLOUDY    62  62 100 SW14      30.04S FOG
HASTINGS       CLOUDY    62  61  96 S6        30.05R FOG
KEARNEY        CLEAR     57  54  88 S6        30.04S
ORD            PTCLDY    57  57 100 SE6       30.00F FOG
YORK           FOG       63  63 100 SW7       30.04S VSB 1/2
AURORA         CLOUDY    63  63 100 S8        30.04S FOG
LEXINGTON      CLEAR     59  57  93 CALM      30.04S
HOLDREGE       CLEAR     59  58  94 S3        30.05S
HEBRON         FOG       58  56  95 CALM      30.04S VSB 1/4

...NEBRASKA PANHANDLE...

CITY           SKY/WX    TMP DP  RH WIND       PRES   REMARKS
CHADRON        PTCLDY    70  42  36 SW10G21   29.91S
ALLIANCE       PTCLDY    59  43  55 SE8       30.00F
SCOTTSBLUFF    PTCLDY    70  41  34 S9        29.99F
SIDNEY         CLEAR     66  44  45 S13       30.06S

...WESTERN AND NORTH CENTRAL NEBRASKA...

CITY           SKY/WX    TMP DP  RH WIND       PRES   REMARKS
VALENTINE      CLEAR     65  56  72 S10       29.95S
AINSWORTH      CLEAR     65  57  76 S12       29.97F
ONEILL         PTCLDY    62  61  97 S7        29.99S
BROKEN BOW     CLEAR     60  56  86 SE3       30.02F
IMPERIAL       CLEAR     59  47  64 S5        30.04F
NORTH PLATTE   CLEAR     63  52  67 S7        30.03S
MCCOOK         CLEAR     63  52  67 SW3       30.04S

...EASTERN NEBRASKA...

CITY           SKY/WX    TMP DP  RH WIND       PRES   REMARKS
NORFOLK        FOG       62  62 100 S8        30.01S VSB 1/2
TEKAMAH        CLOUDY    63  62  97 S3        30.02S FOG
COLUMBUS       CLOUDY   N/A N/A N/A S5        30.03S
ALBION         FOG       63  61  94 SW6       30.02S VSB 3/4
OMAHA EPPLEY   MOCLDY    62  60  93 SE6       30.03S FOG
OFFUTT AFB     CLOUDY    60  60  98 S2        30.03S
MILLARD        CLOUDY    62  61  96 S3        30.03S FOG
LINCOLN        CLOUDY    63  61  93 S6        30.04S
NEBRASKA CITY  MOCLDY    58  57  99 CALM      30.04S FOG
BEATRICE       FOG       60  60  99 CALM      30.04S VSB 1/2
FALLS CITY     CLOUDY    57  56  96 NW3       30.02F FOG

...NORTHERN KANSAS...

CITY           SKY/WX    TMP DP  RH WIND       PRES   REMARKS
GOODLAND       CLOUDY    65  48  54 SW13      30.08F
HILL CITY      CLEAR     57  55  93 W6        30.06R
NORTON         SUNNY     55  52  88 S5        30.05R
PHILLIPSBURG   CLEAR     59  59 100 CALM      30.05S FOG
SMITH CENTER   FOG       55  55 100 E3        30.05F VSB 1/4
HAYS           CLOUDY    52  45  76 S3        30.05S VSB 1/2
RUSSELL        CLEAR     55  54  96 S6        30.03F FOG
CONCORDIA      FOG       57  56  96 SE3       30.04S VSB 1/4
SALINA         CLOUDY    61  59  93 CALM      30.03F FOG
TOPEKA         FOG       60  60 100 CALM      30.01F VSB 1/4



USA.gov is the U.S. government's official web portal to all federal, state and local government web resources and services.